This demonstration page uses our WeatherBlox Daily Observations layout. Learn more.

Left ArrowRight Arrow

36.17497, -115.13722

Hourly Observations for August 14, 2019

Temp ( °F °C ) Dew Point ( °F °C ) Humidity (%) Winds ( mph kmh ) Pressure ( in mb ) Visibility ( mi km ) Precip ( " mm )
12:53 am 00:53 Clear 87 30.6 35 1.7 16 16 NNW 5 7 29.91 1013 10 16 0.00 0.00
1:53 am 01:53 Clear 85 29.4 34 1.1 16 16 WNW 5 7 29.91 1013 10 16 0.00 0.00
2:53 am 02:53 Clear 85 29.4 37 2.8 18 18 NNW 3 6 29.91 1013 10 16 0.00 0.00
3:53 am 03:53 Clear 83 28.3 37 2.8 19 19 W 6 9 29.91 1013 10 16 0.00 0.00
4:53 am 04:53 Clear 80 26.7 39 3.9 23 23 NW 5 7 29.92 1013 10 16 0.00 0.00
5:53 am 05:53 Clear 81 27.2 37 2.8 21 21 VRB 3 6 29.94 1014 10 16 0.00 0.00
6:53 am 06:53 Sunny 82 27.8 35 1.7 18 18 N 7 11 29.96 1014 10 16 0.00 0.00
7:53 am 07:53 Sunny 87 30.6 36 2.2 16 16 Calm 29.98 1015 10 16 0.00 0.00
8:53 am 08:53 Sunny 91 32.8 33 0.6 13 13 Calm 29.98 1015 10 16 0.00 0.00
9:53 am 09:53 Sunny 93 33.9 33 0.6 12 12 ESE 6 9 29.99 1016 10 16 0.00 0.00
10:53 am 10:53 Sunny 97 36.1 33 0.6 10 10 VRB 3 6 29.98 1015 10 16 0.00 0.00
11:53 am 11:53 Sunny 100 37.8 33 0.6 10 10 E 7 11 29.97 1015 10 16 0.00 0.00
12:53 pm 12:53 Sunny 103 39.4 32 0 8 8 ESE 8 13 29.95 1014 10 16 0.00 0.00
1:53 pm 13:53 Sunny 105 40.6 28 -2.2 7 7 S 8 13 29.92 1013 10 16 0.00 0.00
2:53 pm 14:53 Sunny 105 40.6 27 -2.8 6 6 SW 7 11 29.90 1012 10 16 0.00 0.00
3:53 pm 15:53 Sunny 106 41.1 25 -3.9 6 6 undefined N/A 29.88 1012 10 16 0.00 0.00
4:53 pm 16:53 Sunny 106 41.1 26 -3.3 6 6 SE 6 9 29.86 1011 10 16 0.00 0.00
5:53 pm 17:53 Sunny 105 40.6 28 -2.2 7 7 SSW 3 6 29.84 1011 10 16 0.00 0.00
6:53 pm 18:53 Sunny 105 40.6 29 -1.7 7 7 Calm 29.83 1010 10 16 0.00 0.00
7:53 pm 19:53 Clear 99 37.2 30 -1.1 9 9 E 6 9 29.85 1011 10 16 0.00 0.00
8:53 pm 20:53 Clear 99 37.2 30 -1.1 9 9 Calm 29.86 1011 10 16 0.00 0.00
9:53 pm 21:53 Clear 95 35 37 2.8 13 13 NW 3 6 29.87 1012 10 16 0.00 0.00
10:53 pm 22:53 Clear 93 33.9 33 0.6 12 12 WNW 5 7 29.88 1012 10 16 0.00 0.00
11:53 pm 23:53 Clear 90 32.2 36 2.2 15 15 WNW 7 11 29.88 1012 10 16 0.00 0.00

Powered by AerisWeather